Regional Weather Roundup
Issued by NWS

Home | Current Version | Previous Version | Graphics & Text | Print | Product List | Glossary On
Versions: 1 2 3 4 5 6 7 8 9 10 11 12 13 14 15 16 17 18 19 20 21 22 23 24 25 26 27
000
ASUS45 KTFX 232210
RWRMT
MONTANA REGIONAL WEATHER ROUNDUP
NATIONAL WEATHER SERVICE GREAT FALLS MT
300 PM MST TUE JAN 23 2018

NOTE: "FAIR" INDICATES FEW OR NO CLOUDS BELOW 12000 FEET WITH NO
SIGNIFICANT WEATHER AND/OR OBSTRUCTIONS TO VISIBILITY.

MTZ001>007-043-232300-
WEST OF THE DIVIDE

CITY           SKY/WX    TMP DP  RH WIND       PRES   REMARKS
KALISPELL      CLOUDY    34  25  69 SW3       30.10F
MISSOULA       FAIR      36  22  56 SE8       30.13F WCI  30
BUTTE          PTSUNNY   28  13  53 CALM      30.12F
MULLAN PASS    CLOUDY    24  23  96 VRB5      29.99F
ANACONDA         N/A     32  12  43 S14G24    30.10F WCI  22
DEER LODGE       N/A     32  18  55 S7        30.12F WCI  26
EUREKA           N/A     37  25  60 MISG      30.09F
HAMILTON         N/A     39  18  41 SE10G18   30.13F
PLAINS           N/A     35  29  79 CALM      30.11F
RONAN            N/A     28  23  80 CALM      30.12F
$$

MTZ008-052>055-232300-
SOUTHWEST MONTANA

CITY           SKY/WX    TMP DP  RH WIND       PRES   REMARKS
BOZEMAN        FAIR      28  14  55 CALM      30.15F
DILLON         FAIR      21  16  81 SW10      30.15F WCI  10
ENNIS          MOSUNNY   30  18  59 S15       30.20R WCI  19
W YELLOWSTONE  CLOUDY    19  16  86 SW15G23   30.19F FOG     WCI   5
THREE FORKS      N/A     34  18  52 N1        30.12F
TWIN BRIDGES     N/A     30  12  47 CALM      30.13F
$$

MTZ009-010-012-014-046-048-049-054-232300-
EAST SLOPES AND CENTRAL MONTANA

CITY           SKY/WX    TMP DP  RH WIND       PRES   REMARKS
CUT BANK       FAIR      36  16  44 W24G32    29.99F WCI  24
GREAT FALLS    FAIR      38  15  39 SW21G29   30.05F WCI  28
MALMSTROM AFB  FAIR      38  17  41 SW23      30.06F WCI  28
HELENA           N/A    N/A N/A N/A MISG      30.11F
AUGUSTA        FAIR      33  18  53 SW18      30.01F WCI  22
BOWMANS CRNR   FAIR      33  19  55 SW16      30.03F WCI  23
CHOTEAU          N/A     37  16  41 SW12      30.03S WCI  30
FAIRFIELD      FAIR      37  14  39 SW18      30.03F WCI  27
POWER          FAIR      33  20  57 SW18      30.03F WCI  22
RAYNESFORD     FAIR      37  12  35 W17       30.05F WCI  28
ULM            FAIR      38  16  41 SW22G30   30.06F WCI  27
WHITE SULPHUR    N/A     27  14  59 S18G25    30.07  WCI  13
$$

MTZ011-013-016-021-045-047-050-051-232300-
NORTH CENTRAL MONTANA

CITY           SKY/WX    TMP DP  RH WIND       PRES   REMARKS
HAVRE          FAIR      30  25  81 SW8       30.06F WCI  22
LEWISTOWN      FAIR      33  20  58 W6        30.07F WCI  28
N BAR RANCH    FAIR      34  12  40 NW7       30.09F WCI  28
CHINOOK          N/A     34  25  69 NW6       30.07F WCI  29
DENTON         FAIR      35  20  54 MISG      30.04F
GEYSER         FAIR      36  15  42 W9        30.05F WCI  29
GRASS RANGE    FAIR      35  15  43 W13       30.05F WCI  27
STANFORD       FAIR      36  13  38 SW8       30.05F WCI  30
WINIFRED       FAIR      36  18  47 W10       30.07F WCI  28
$$

MTZ017>020-022>027-061-062-232300-
NORTHEAST MONTANA

CITY           SKY/WX    TMP DP  RH WIND       PRES   REMARKS
GLASGOW        FAIR      24  16  71 NW3       30.10S
GLENDIVE       FAIR      36  22  56 W8        30.13R WCI  30
JORDAN           N/A     34  22  61 W12       30.11S WCI  25
MALTA          SUNNY     23  18  80 W8        30.10S WCI  14
SIDNEY         FAIR      31  23  72 W5        30.12R
WOLF POINT     FAIR      25  17  72 W12       30.12S WCI  14
PLENTYWOOD       N/A     30  21  69 CALM      30.07S
POPLAR           N/A     27  18  69 CALM      30.12S
SCOBEY           N/A     31  18  58 S6        30.05R WCI  25
$$

MTZ028>42-056>058-232300-
SOUTHCENTRAL AND SOUTHEAST MONTANA

CITY           SKY/WX    TMP DP  RH WIND       PRES   REMARKS
BAKER          FAIR      33  23  66 W16       30.13R WCI  23
BILLINGS       FAIR      38  17  42 SW12      30.14F WCI  30
LIVINGSTON     FAIR      36  20  52 W17       30.10F WCI  26
MILES CITY     FAIR      33  23  66 W8        30.14S WCI  26
BIG TIMBER     SUNNY     37  12  35 W26G32    30.10F WCI  26
EKALAKA          N/A     32  20  61 W8        30.09S WCI  25
FORSYTH          N/A     39  18  41 W7        30.15F
HARLOWTON      FAIR      32  18  56 W20G30    30.09F WCI  20
LAUREL           N/A     39  16  38 W10       30.15F
ROUNDUP          N/A     35  14  42 SW21      30.02F WCI  24
$$

REGIONAL REPORTS...DAKOTAS

CITY           SKY/WX    TMP DP  RH WIND       PRES   REMARKS
WILLISTON      FAIR      29  20  69 W10       30.11R WCI  20
MINOT          CLOUDY    22  18  85 W7        30.10R WCI  13
DICKINSON      FAIR      34  23  64 W13       30.07R WCI  25
BEACH          FAIR      32  23  69 W14       30.14R WCI  22
CROSBY         FAIR      23  23 100 SW7       30.09R WCI  15
TIOGA          FAIR      21  19  93 W5        30.09S
WATFORD CITY   FAIR      32  23  69 W8        30.10R WCI  25
BISMARCK       FAIR      34  24  67 NW12      30.11R WCI  25
GRAND FORKS    CLOUDY    23  21  92 S5        30.10R
FARGO          CLOUDY    23  20  88 SW7       30.12R WCI  15
BUFFALO SD       N/A     36  22  56 W15       30.07R WCI  27
RAPID CITY     FAIR      42  17  36 N20       30.14R
$$

REGIONAL REPORTS...WYOMING/IDAHO/WASHINGTON

CITY           SKY/WX    TMP DP  RH WIND       PRES   REMARKS
GILLETTE       FAIR      34  18  52 NW9       30.17R WCI  27
SHERIDAN       FAIR      37  15  40 CALM      30.16S
BUFFALO WY     FAIR      34  10  37 N6        30.16S WCI  29
CODY           FAIR      37   9  31 W21G32    30.13F WCI  26
YELLOWSTONE LA   N/A     19  12  74 W7        30.18F WCI  10
IDAHO FALLS    FAIR      32  25  75 CALM      30.28F
SALMON         FAIR      27  17  66 CALM      30.24F
BOISE          CLOUDY    43  28  55 E13       30.22F
SPOKANE        CLOUDY    35  32  88 E6        30.05F WCI  30
$$

REGIONAL REPORTS...ALBERTA

CITY           SKY/WX    TMP DP  RH WIND       PRES   REMARKS
CALGARY        PTSUNNY   34  12  40 S8        29.89F WCI  27
CARDSTON         N/A     37  16  41 W6          N/A
EDMONTON       SUNNY     36  16  44 SE2       29.93F
FORT MCMURRAY  FLURRIES  16  12  86 E8        30.01F WCI   5
HIGH LEVEL     FLURRIES  10   9  92 CALM      29.97F
LETHBRIDGE     MOSUNNY   37  18  44 W17       29.97F WCI  28
LLOYDMINSTER   MOSUNNY   23  21  93 NW3       29.97S
MEDICINE HAT   MOSUNNY   36  23  60 SW12      30.00F WCI  27
MILK RIVER       N/A     37  21  52 SW7         N/A
PEACE RIVER    MOSUNNY   12   9  85 E3        29.89S
PINCHER CREEK  CLOUDY    32  19  59 W25G32    29.95F WCI  19
$$

REGIONAL REPORTS...SASKATCHEWAN

CITY           SKY/WX    TMP DP  RH WIND       PRES   REMARKS
CORONACH         N/A     32  21  64 W10         N/A  WCI  24
CYPRESS HILLS    N/A     30  10  43 SW9         N/A  WCI  22
ESTEVAN        CLOUDY    21  19  93 W7        30.08R FOG     WCI  13
MOOSE JAW        N/A     36  21  55 SW8         N/A  WCI  29
PRINCE ALBERT  FLURRIES  16  10  79 NW6       30.05S WCI   7
REGINA         MOSUNNY   21  19  93 S5        30.04S FOG
ROCKGLEN         N/A     27  18  69 W12         N/A  WCI  16
SASKATOON      LGT SNOW  21  19  93 SW6       30.03S VSB 1   WCI  14
SWIFT CURRENT  SUNNY     36  19  51 W12       29.99S WCI  27
VAL MARIE        N/A     25  18  74 SW8         N/A  WCI  16
$$




USA.gov is the U.S. government's official web portal to all federal, state and local government web resources and services.